Flag for U.S.A. Weather past 2 weeks in Avalon (Santa Catalina Island), California, U.S.A.

Now
65 °F

Sunny.


Feels Like: 65 °F
Forecast: 67 / 79 °F
Wind: 8 mph from Southwest

Location: Catalina Airport

Current Time: Jul 29, 2015 at 8:10:56 PM

Latest Report: Jul 29, 2015 at 6:51 PM


Visibility: 10 mi

Pressure: 29.94 "Hg

Humidity: 87%

Dew point: 61 °F

Location of Avalon (Santa Catalina Island)Location

Historic Weather in Avalon (Santa Catalina Island) — Graph

°F

Avalon (Santa Catalina Island) temperature yesterday

Maximum temperature yesterday: 72 °F (at 12:51 PM)
Minimum temperature yesterday: 58 °F (at 4:51 AM)
Average temperature yesterday: 64 °F

Past Weeks' High & Low Weather Summary

 TemperatureHumidityPressure
High81 °F (Jul 19, 9:51 AM)100% (Jul 15, 10:51 PM)30.09 "Hg (Jul 15, 10:51 PM)
Low55 °F (Jul 17, 5:51 AM)23% (Jul 24, 11:51 PM)29.81 "Hg (Jul 17, 4:51 PM)
Average66 °F80%29.93 "Hg
* Reported Jul 14 6:51 PM — Jul 29 6:51 PM, Avalon (Santa Catalina Island), Weather by CustomWeather, © 2015

Note: Actual official high and low records may vary slightly from our data, if they occured in-between our weather recording intervals... More about our weather records

Advertising

Avalon (Santa Catalina Island) weather history for previous 24 hours

 ConditionsComfort  
Time TempWeatherWind HumidityBarometerVisibility
6:51 PM
Wed, Jul 29
65 °FSunny.8 mph87%29.94 "Hg10 mi
5:51 PM69 °FSunny.8 mph73%29.92 "Hg10 mi
4:51 PM71 °FSunny.5 mph66%29.91 "Hg10 mi
3:51 PM71 °FSunny.8 mph66%29.92 "Hg10 mi
2:51 PM68 °FSunny.13 mph73%29.94 "Hg10 mi
1:51 PM68 °FSunny.12 mph73%29.95 "Hg10 mi
12:51 PM69 °FSunny.8 mph73%29.95 "Hg10 mi
11:51 AM71 °FSunny.5 mph71%29.96 "Hg10 mi
10:51 AM68 °FSunny.7 mph73%29.94 "Hg10 mi
9:51 AM67 °FPartly sunny.5 mph81%29.94 "Hg9 mi
9:04 AM62 °FFog.3 mph96%29.99 "Hg1 mi
8:51 AM62 °FFog.3 mph96%29.93 "Hg0 mi
7:51 AM61 °FFog.3 mph100%29.94 "Hg0 mi
6:51 AM60 °FFog.No wind100%29.91 "Hg0 mi
5:51 AM60 °FFog.No wind100%29.90 "Hg0 mi
4:51 AM61 °FFog.No wind97%29.90 "Hg0 mi
3:51 AM60 °FFog.No wind100%29.89 "Hg0 mi
2:51 AM61 °FFog.3 mph97%29.88 "Hg0 mi
1:51 AM61 °FFog.5 mph97%29.89 "Hg0 mi
12:51 AM61 °FFog.5 mph97%29.90 "Hg0 mi
11:51 PM
Tue, Jul 28
61 °FClear.5 mph93%29.91 "Hg8 mi
10:51 PM65 °FClear.5 mph76%29.90 "Hg10 mi
9:51 PM64 °FClear.3 mph73%29.89 "Hg10 mi
8:51 PM67 °FSunny.3 mph59%29.87 "Hg10 mi
Weather by CustomWeather, © 2015

See weather overviewHow to use our weather pages